EW9688 Weather Reports


time (UTC)temp
F
wind
direction
speed
knots
gust
knots
rain 1hr
in
rain 24hr
in
rain mn
in
humidity
%
barometer
mb
20260906225815 85 20 1.7 2.6 0.00 0.02 0.00 39 1018.8
20260906224902 86 47 2.6 4.3 0.00 0.02 0.00 39 1018.8
20260906223830 86 341 1.7 4.3 0.00 0.02 0.00 38 1018.8
20260906222822 85 2 3.5 4.3 0.00 0.02 0.00 38 1019.0
20260906221831 86 31 2.6 3.5 0.00 0.02 0.00 39 1019.1
20260906220831 86 120 3.5 4.3 0.00 0.02 0.00 38 1019.2
20260906215832 86 140 1.7 3.5 0.00 0.02 0.00 37 1019.3
20260906214842 85 102 1.7 2.6 0.00 0.02 0.00 39 1019.5
20260906213843 85 107 2.6 3.5 0.00 0.02 0.00 36 1019.5
20260906212823 85 28 4.3 6.1 0.00 0.02 0.00 35 1019.6
20260906211817 85 137 0.9 2.6 0.00 0.02 0.00 37 1019.7
20260906210823 84 27 1.7 2.6 0.00 0.02 0.00 38 1020.0
20260906205823 84 22 4.3 6.1 0.00 0.02 0.00 39 1020.1
20260906204854 84 27 3.5 6.1 0.00 0.02 0.00 39 1020.2
20260906203823 84 51 1.7 2.6 0.00 0.02 0.00 40 1020.3
20260906202818 84 66 2.6 4.3 0.00 0.02 0.00 40 1020.4
20260906201818 83 128 3.5 7.8 0.00 0.02 0.00 40 1020.5
20260906200838 83 35 1.7 4.3 0.00 0.02 0.00 39 1020.5
20260906195818 83 84 1.7 3.5 0.00 0.02 0.00 38 1020.5
20260906194819 83 109 3.5 7.0 0.00 0.02 0.00 39 1020.6
20260906193818 82 44 1.7 3.5 0.00 0.02 0.00 41 1020.7
20260906192818 82 78 4.3 5.2 0.00 0.02 0.00 40 1020.7
20260906191839 82 14 5.2 7.8 0.00 0.02 0.00 39 1020.9
20260906190819 82 118 3.5 5.2 0.00 0.02 0.00 41 1021.0
20260906185819 81 100 2.6 6.1 0.00 0.02 0.00 42 1021.2
20260906184820 81 60 1.7 3.5 0.00 0.02 0.00 42 1021.4
20260906183819 80 210 2.6 5.2 0.00 0.02 0.00 42 1021.6
20260906182820 80 32 3.5 4.3 0.00 0.02 0.00 43 1021.7
20260906181820 79 118 2.6 4.3 0.00 0.02 0.00 40 1021.9
20260906180821 79 14 4.3 6.1 0.00 0.02 0.00 41 1022.0
20260906175820 79 35 4.3 5.2 0.00 0.02 0.00 40 1022.1
20260906174840 77 19 2.6 5.2 0.00 0.02 0.00 45 1022.3
20260906173841 77 24 2.6 4.3 0.00 0.02 0.00 45 1022.6
20260906172820 77 16 2.6 4.3 0.00 0.02 0.00 45 1022.8
20260906171821 76 125 1.7 3.5 0.00 0.02 0.00 47 1022.9
20260906170822 76 36 2.6 2.6 0.00 0.02 0.00 49 1022.9
20260906165821 75 210 1.7 2.6 0.00 0.02 0.00 51 1023.0
20260906164822 75 158 3.5 4.3 0.00 0.02 0.00 53 1023.1
20260906163821 75 123 2.6 3.5 0.00 0.02 0.00 52 1023.1
20260906162821 74 26 5.2 5.2 0.00 0.02 0.00 54 1023.1
20260906161821 74 195 3.5 4.3 0.00 0.02 0.00 57 1023.1
20260906160822 74 5 2.6 3.5 0.00 0.02 0.00 57 1023.0
20260906155822 73 55 1.7 2.6 0.00 0.02 0.00 57 1023.1
20260906154822 73 7 1.7 4.3 0.00 0.02 0.00 56 1023.0
20260906153822 72 116 0.9 1.7 0.00 0.02 0.00 56 1023.0
20260906152822 71 4 2.6 3.5 0.00 0.02 0.00 57 1022.9
20260906151822 71 204 1.7 2.6 0.00 0.02 0.00 58 1023.0
20260906150823 70 248 1.7 3.5 0.00 0.02 0.00 59 1023.2
20260906145823 69 168 1.7 1.7 0.00 0.02 0.00 62 1023.2
20260906144823 69 301 1.7 1.7 0.00 0.02 0.00 65 1023.3
20260906143823 67 223 1.7 2.6 0.00 0.02 0.00 68 1023.3
20260906142824 67 317 1.7 1.7 0.00 0.02 0.00 71 1023.2
20260906141829 67 24 2.6 3.5 0.00 0.02 0.00 73 1023.2
20260906140824 66 352 1.7 1.7 0.00 0.02 0.00 74 1023.1
20260906135844 65 33 2.6 2.6 0.00 0.02 0.00 75 1023.2
20260906134824 63 24 1.7 1.7 0.00 0.02 0.00 75 1023.1
20260906133824 62 108 0.9 0.9 0.00 0.02 0.00 76 1023.1
20260906132825 61 317 0.9 1.7 0.00 0.02 0.00 76 1023.0
20260906131824 60 260 0.9 0.9 0.00 0.02 0.00 77 1023.0
20260906130825 60 269 1.7 1.7 0.00 0.02 0.00 76 1023.0
20260906125825 59 276 0.9 0.9 0.00 0.02 0.00 79 1023.0
20260906124825 59 0.0 0.0 0.00 0.02 0.00 80 1022.9
20260906123825 59 311 0.9 0.9 0.00 0.02 0.00 79 1022.8
20260906122826 59 0.0 0.0 0.00 0.02 0.00 78 1022.8
20260906121825 60 238 0.0 0.9 0.00 0.02 0.00 78 1022.8
20260906120826 60 289 1.7 1.7 0.00 0.02 0.00 78 1022.8
20260906115826 60 314 0.9 0.9 0.00 0.02 0.00 78 1022.8
20260906114826 60 344 0.9 1.7 0.00 0.02 0.00 78 1022.9
20260906113847 60 358 1.7 2.6 0.00 0.02 0.00 77 1022.6
20260906112827 60 274 0.9 0.9 0.00 0.02 0.00 77 1022.7
20260906111827 60 308 0.9 0.9 0.00 0.02 0.00 76 1022.7
20260906110827 61 340 0.9 1.7 0.00 0.02 0.00 74 1022.7
20260906105827 61 331 0.9 0.9 0.00 0.02 0.00 70 1022.7
20260906104828 61 342 0.9 1.7 0.00 0.02 0.00 69 1022.5
20260906103848 62 1 1.7 1.7 0.00 0.02 0.00 67 1022.5
20260906102828 62 277 0.9 0.9 0.00 0.02 0.00 67 1022.5
20260906101828 62 280 0.9 1.7 0.00 0.02 0.00 67 1022.7
20260906100822 62 343 1.7 2.6 0.00 0.02 0.00 65 1022.5
20260906095848 62 3 1.7 1.7 0.00 0.02 0.00 67 1022.7
20260906094849 63 323 0.9 1.7 0.00 0.02 0.00 65 1022.6
20260906093828 63 24 0.9 1.7 0.00 0.02 0.00 62 1022.6
20260906092828 63 0.0 0.0 0.00 0.02 0.00 60 1022.5
20260906091829 64 226 0.9 0.9 0.00 0.02 0.00 61 1022.5
20260906090829 64 0.0 0.0 0.00 0.02 0.00 59 1022.3
20260906085836 66 223 0.9 0.9 0.00 0.02 0.00 57 1022.4
20260906084836 67 272 1.7 1.7 0.00 0.02 0.00 52 1022.2
20260906083837 67 329 1.7 2.6 0.00 0.02 0.00 53 1022.1
20260906082837 67 358 2.6 2.6 0.00 0.02 0.00 52 1021.9
20260906081837 67 314 0.9 1.7 0.00 0.02 0.00 53 1021.9
20260906080858 68 313 1.7 2.6 0.00 0.02 0.00 53 1021.8
20260906075838 67 303 2.6 3.5 0.00 0.02 0.00 52 1022.0
20260906074838 66 339 1.7 2.6 0.00 0.02 0.00 54 1022.1
20260906073857 66 0.0 0.0 0.00 0.02 0.00 57 1022.1
20260906072858 67 326 0.0 0.0 0.00 0.02 0.00 55 1022.1
20260906071816 67 281 0.9 0.9 0.00 0.02 0.00 55 1022.1
20260906070816 67 295 1.7 1.7 0.00 0.02 0.00 56 1022.2
20260906065836 68 307 0.9 0.9 0.00 0.02 0.00 53 1022.1
20260906064838 68 320 0.9 1.7 0.00 0.02 0.00 57 1022.3
20260906063840 68 240 0.9 0.9 0.00 0.02 0.00 58 1022.3
20260906062831 68 328 1.7 1.7 0.00 0.02 0.00 60 1022.4
20260906061853 69 265 1.7 1.7 0.01 0.02 0.00 59 1022.4
20260906060832 69 3 1.7 2.6 0.02 0.02 0.00 58 1022.3
20260906055817 69 186 2.6 3.5 0.02 0.02 0.02 59 1022.3
20260906054817 69 279 0.9 1.7 0.02 0.02 0.02 58 1022.3
20260906053837 70 223 1.7 2.6 0.02 0.02 0.02 59 1022.2
20260906052820 71 15 5.2 7.0 0.02 0.02 0.02 57 1022.2
20260906051833 73 316 1.7 1.7 0.01 0.01 0.01 51 1023.1
20260906050853 74 152 2.6 2.6 0.00 0.00 0.00 43 1023.2
20260906045818 74 94 1.7 2.6 0.00 0.00 0.00 43 1023.1
20260906044819 75 165 1.7 1.7 0.00 0.00 0.00 40 1022.9
20260906043819 76 315 0.9 0.9 0.00 0.00 0.00 39 1022.2
20260906042822 77 17 4.3 5.2 0.00 0.00 0.00 37 1022.0
20260906041835 77 341 4.3 6.1 0.00 0.00 0.00 38 1021.9
20260906040822 77 253 4.3 6.1 0.00 0.00 0.00 38 1021.7
20260906035819 77 283 3.5 6.1 0.00 0.00 0.00 37 1021.7
20260906034841 76 198 3.5 5.2 0.00 0.00 0.00 36 1021.8
20260906033819 75 322 2.6 3.5 0.00 0.00 0.00 35 1021.4
20260906032900 75 282 1.7 2.6 0.00 0.00 0.00 36 1021.3
20260906031820 75 305 0.9 0.9 0.00 0.00 0.00 36 1021.3
20260906030821 75 250 1.7 2.6 0.00 0.00 0.00 36 1021.3
20260906025829 76 292 1.7 4.3 0.00 0.00 0.00 36 1021.0
20260906024833 76 292 2.6 2.6 0.00 0.00 0.00 36 1020.9
20260906023853 77 273 0.9 1.7 0.00 0.00 0.00 35 1020.7
20260906022832 77 287 1.7 2.6 0.00 0.00 0.00 35 1020.7
20260906021821 78 297 1.7 2.6 0.00 0.00 0.00 34 1020.6
20260906020819 79 294 1.7 2.6 0.00 0.00 0.00 33 1020.5
20260906015818 79 306 2.6 2.6 0.00 0.00 0.00 32 1020.6
20260906014838 79 309 2.6 5.2 0.00 0.00 0.00 33 1020.5
20260906013844 79 264 0.9 2.6 0.00 0.00 0.00 32 1020.5
20260906012818 80 319 0.9 1.7 0.00 0.00 0.00 33 1020.4
20260906011822 80 304 1.7 2.6 0.00 0.00 0.00 33 1020.4
20260906010822 80 334 1.7 3.5 0.00 0.00 0.00 33 1020.4
20260906005819 80 275 2.6 4.3 0.00 0.00 0.00 32 1020.5
20260906004822 81 305 1.7 4.3 0.00 0.00 0.00 32 1020.5
20260906003819 81 284 2.6 3.5 0.00 0.00 0.00 31 1020.4
20260906002819 82 288 2.6 5.2 0.00 0.00 0.00 31 1020.6
20260906001822 83 9 1.7 2.6 0.00 0.00 0.00 28 1020.5
20260906000822 84 15 1.7 2.6 0.00 0.00 0.00 28 1020.4
20260905235854 84 33 1.7 2.6 0.00 0.00 0.00 27 1020.3
20260905234828 84 15 2.6 3.5 0.00 0.00 0.00 27 1020.3
20260905233823 85 17 1.7 1.7 0.00 0.00 0.00 28 1020.3
20260905232855 86 40 1.7 2.6 0.00 0.00 0.00 28 1020.2
20260905231844 86 42 2.6 3.5 0.00 0.00 0.00 28 1020.2
20260905230823 86 23 3.5 6.1 0.00 0.00 0.00 27 1020.1